Regional Weather Roundup
Issued by NWS

Home | Current Version | Previous Version | Text Only | Print | Product List | Glossary On
Versions: 1 2 3 4 5 6 7 8 9 10 11 12 13 14 15 16 17 18 19 20 21 22 23 24 25 26 27 28 29 30 31 32 33 34 35 36 37 38 39 40 41 42 43 44 45 46 47 48 49 50
000
ASUS45 KBOU 300907
RWRCO

WEATHER ROUNDUP FOR COLORADO
NATIONAL WEATHER SERVICE DENVER/BOULDER CO
300 AM MDT SAT MAY 30 2015

NOTE: "FAIR" INDICATES FEW OR NO CLOUDS BELOW 12000 FEET WITH NO
SIGNIFICANT WEATHER AND/OR OBSTRUCTIONS TO VISIBILITY.

COZ001>005-013-030-031-301000-
...NORTHWEST COLORADO...

CITY           SKY/WX    TMP DP  RH WIND       PRES   REMARKS
CRAIG          CLEAR     40  37  89 CALM      30.29F
HAYDEN         CLEAR     41  36  81 E8        30.30S
MEEKER         CLEAR     41  37  86 NE6       30.30S
MOUNT WERNER   NOT AVBL
STEAMBOAT SPGS CLEAR     39  35  86 CALM      30.32F
WALDEN         CLEAR     32  30  93 SE6       30.36F WCI  26
$$

COZ006>008-011-301000-
...WEST CENTRAL VALLEYS...

CITY           SKY/WX    TMP DP  RH WIND       PRES   REMARKS
GRAND JUNCTION CLEAR     50  43  77 E5        30.19S
MONTROSE       CLEAR     49  38  65 SE7       30.27S
EAGLE          CLEAR     50  48  93 E5        30.36S
RIFLE          CLEAR     46  39  76 E3        30.27R
DELTA          CLEAR     51  40  64 E5        30.24S
NUCLA          NOT AVBL
$$

COZ017>023-064>068-301000-
...SOUTHWEST COLORADO...

CITY           SKY/WX    TMP DP  RH WIND       PRES   REMARKS
DURANGO        CLEAR     42  33  70 CALM      30.26R
CORTEZ         CLEAR     40  32  73 N6        30.24R
PAGOSA SPRINGS CLEAR     42  31  66 CALM      30.32S
TELLURIDE      CLEAR     40  32  72 E7        30.42S
WOLF CREEK PAS NOT AVBL
$$

COZ009-010-012-014-032>034-037-058>063-301000-
...CENTRAL COLORADO...

CITY           SKY/WX    TMP DP  RH WIND       PRES   REMARKS
ASPEN          CLEAR     38  33  82 SW6       30.35S
BUENA VISTA    CLOUDY    42  34  72 NW6       30.40S
COPPER MTN     PTCLDY    36  27  69 S5        30.51F
BERTHOUD PASS  FAIR      23  18  80 W20       30.52F WCI   8
COTTONWOOD PAS MOCLDY    41  34  75 CALM      30.45F
GUNNISON       CLEAR     37  28  70 CALM      30.39R
KREMMLING      CLEAR     36  34  93 CALM      30.39S
LEADVILLE      PTCLDY    29  27  92 NE5       30.44S WCI  24
MONARCH PASS   FOG       32  32 100 MISG      30.61S VSB<1/4
SALIDA         PTCLDY    46  40  78 S3        30.45S
SUNLIGHT       CLEAR     37  32  81 SE3       30.50S
WILKERSON PASS FOG       32  32 100 SW5       30.51F VSB 3/4 WCI  27
$$

COZ069>075-301000-
...SAN LUIS VALLEY/SANGRE DE CRISTO MOUNTAINS...

CITY           SKY/WX    TMP DP  RH WIND       PRES   REMARKS
ALAMOSA        CLEAR     43  36  76 E9        30.33S
LA VETA PASS   FOG      N/A N/A N/A MISG      30.46S VSB 1/2
SAGUACHE       CLEAR     41  32  70 N8        30.36S
$$

COZ035-036-038>040-301000-
...NORTHERN COLORADO FRONT RANGE...

CITY           SKY/WX    TMP DP  RH WIND       PRES   REMARKS
DENVER INTL AP MOCLDY    45  42  89 S8        30.32F
DMNS CITY PARK   N/A     49  42  74 SE6G12    30.31F
AURORA         MOCLDY    45  43  93 S6        30.33F
FRONT RANGE AP PTCLDY    46  45  93 MISG      30.33F
ERIE MUNI ARPT CLOUDY    50  47  89 CALM      30.32S
BOULDER MUN AP CLOUDY    50  46  87 SE6       30.31F
CENTENNIAL     MOCLDY    47  43  86 S6        30.33F
BROOMFIELD     CLOUDY    48  45  87 S5        30.33F
FORT COLLINS   CLOUDY    48  45  87 S7        30.33S
LONGMONT       CLOUDY    53  48  84 S3        30.33F
$$

COZ041-046-047-076>085-087-088-301000-
...PIKES PEAK/PALMER DIVIDE AND SOUTHERN FOOTHILLS...

CITY           SKY/WX    TMP DP  RH WIND       PRES   REMARKS
COLO. SPRINGS  CLOUDY    47  44  90 S8        30.36S
A. F. ACADEMY  CLOUDY    46  46  99 CALM      30.35F
ELLICOTT       MOCLDY   N/A N/A N/A SW3       30.35S
FALCON         PTCLDY    43  42  97 CALM      30.37F
FORT CARSON    DRIZZLE   47  47  99 SW5       30.35F
LIMON          CLOUDY    45  43  93 NW3       30.33F
MONUMENT HILL  MOCLDY    41  37  87 E5        30.37F
TRINIDAD       MOCLDY    48  46  93 W5        30.34F
$$

COZ042>045-048>051-090-091-301000-
...NORTHEAST COLORADO...

CITY           SKY/WX    TMP DP  RH WIND       PRES   REMARKS
GREELEY ARPT   CLEAR     46  43  87 S5        30.32F
AKRON          CLOUDY    47  44  90 CALM      30.31F
BURLINGTON     CLOUDY    49  46  90 N7        30.30F
WRAY           CLOUDY    48  46  90 N8        30.31F
STERLING       CLOUDY    48  45  87 CALM      30.30F
HOLYOKE        CLOUDY    48  43  81 N7        30.31F
FORT MORGAN    PTCLDY    46  43  90 CALM      30.32S
$$

COZ086-089-092>099-301000-
...SOUTHEAST COLORADO...

CITY           SKY/WX    TMP DP  RH WIND       PRES   REMARKS
PUEBLO         LGT RAIN  51  49  92 SE6       30.33F
LA JUNTA       CLOUDY    54  48  80 N6        30.30F
LAMAR          CLOUDY    51  48  89 N8        30.27F
SPRINGFIELD      N/A     49  48  97 N10       30.25F
$$



USA.gov is the U.S. government's official web portal to all federal, state and local government web resources and services.